KA2FNK Weather Reports


Display with metric or nautical units.
time (UTC)temp
F
wind
direction
speed
MPH
gust
MPH
rain 1hr
in
rain 24hr
in
rain mn
in
humidity
%
barometer
mb
20260507210444 68 243 1.0 8.0 0.00 0.00 0.00 48 1011.8
20260507205943 68 240 7.0 9.0 0.00 0.00 0.00 48 1011.8
20260507205441 68 175 0.0 12.0 0.00 0.00 0.00 48 1011.9
20260507204940 68 180 1.0 10.0 0.00 0.00 0.00 47 1012.0
20260507204438 68 161 8.0 10.0 0.00 0.00 0.00 48 1011.8
20260507203938 67 307 8.0 12.0 0.00 0.00 0.00 48 1012.0
20260507203436 67 281 3.0 11.0 0.00 0.00 0.00 51 1012.0
20260507202935 67 237 2.0 15.0 0.00 0.00 0.00 50 1012.1
20260507202434 67 187 8.0 14.0 0.00 0.00 0.00 47 1012.4
20260507201933 67 217 2.0 13.0 0.00 0.00 0.00 48 1012.4
20260507201433 67 237 5.0 12.0 0.00 0.00 0.00 48 1012.5
20260507200931 67 317 4.0 15.0 0.00 0.00 0.00 51 1012.6
20260507200430 67 225 5.0 10.0 0.00 0.00 0.00 51 1012.6
20260507195929 66 243 0.0 11.0 0.00 0.00 0.00 51 1012.6
20260507195428 67 205 1.0 5.0 0.00 0.00 0.00 49 1012.7
20260507194927 67 226 2.0 9.0 0.00 0.00 0.00 50 1012.7
20260507194426 66 147 1.0 8.0 0.00 0.00 0.00 51 1012.7
20260507193925 66 215 4.0 15.0 0.00 0.00 0.00 51 1012.8
20260507193424 66 188 0.0 12.0 0.00 0.00 0.00 51 1012.9
20260507192923 66 116 7.0 19.0 0.00 0.00 0.00 53 1012.8
20260507192422 65 168 12.0 15.0 0.00 0.00 0.00 53 1013.0
20260507191921 65 254 2.0 13.0 0.00 0.00 0.00 52 1013.0
20260507191420 66 246 6.0 20.0 0.00 0.00 0.00 52 1013.0
20260507190920 66 212 0.0 15.0 0.00 0.00 0.00 52 1013.1
20260507190418 66 196 5.0 11.0 0.00 0.00 0.00 51 1013.3
20260507185917 65 257 0.0 11.0 0.00 0.00 0.00 52 1013.4
20260507185416 65 237 5.0 5.0 0.00 0.00 0.00 55 1013.5
20260507184915 64 296 1.0 12.0 0.00 0.00 0.00 54 1013.6
20260507184414 65 258 5.0 13.0 0.00 0.00 0.00 52 1013.7
20260507183914 65 217 3.0 12.0 0.00 0.00 0.00 53 1013.7
20260507183412 64 241 3.0 13.0 0.00 0.00 0.00 55 1013.7
20260507182910 64 288 3.0 17.0 0.00 0.00 0.00 55 1013.9
20260507182409 64 237 0.0 11.0 0.00 0.00 0.00 54 1013.9
20260507181909 64 237 7.0 7.0 0.00 0.00 0.00 55 1013.9
20260507181406 64 206 4.0 14.0 0.00 0.00 0.00 53 1013.9
20260507180905 64 282 3.0 13.0 0.00 0.00 0.00 56 1013.9
20260507180404 64 237 5.0 7.0 0.00 0.00 0.00 54 1014.0
20260507175904 64 210 0.0 12.0 0.00 0.00 0.00 56 1014.1
20260507175403 63 241 4.0 15.0 0.00 0.00 0.00 57 1014.2
20260507174902 64 255 2.0 9.0 0.00 0.00 0.00 52 1014.2
20260507174400 64 226 6.0 15.0 0.00 0.00 0.00 54 1014.3
20260507173900 63 222 1.0 12.0 0.00 0.00 0.00 57 1014.5
20260507173358 62 281 6.0 17.0 0.00 0.00 0.00 55 1014.5
20260507172857 63 251 1.0 4.0 0.00 0.00 0.00 57 1014.5
20260507172356 62 320 0.0 13.0 0.00 0.00 0.00 56 1014.6
20260507171855 63 227 2.0 14.0 0.00 0.00 0.00 54 1014.6
20260507171354 63 251 2.0 8.0 0.00 0.00 0.00 58 1014.7
20260507170853 63 312 1.0 12.0 0.00 0.00 0.00 55 1014.7
20260507170352 62 257 5.0 9.0 0.00 0.00 0.00 56 1014.8
20260507165852 62 189 4.0 11.0 0.00 0.00 0.00 57 1014.9
20260507165350 61 247 1.0 13.0 0.00 0.00 0.00 59 1014.9
20260507164849 62 343 2.0 7.0 0.00 0.00 0.00 57 1015.2
20260507164349 62 180 0.0 12.0 0.00 0.00 0.00 55 1015.2
20260507163848 62 255 0.0 11.0 0.00 0.00 0.00 57 1015.3
20260507163347 62 278 6.0 12.0 0.00 0.00 0.00 57 1015.3
20260507162846 62 277 4.0 17.0 0.00 0.00 0.00 59 1015.4
20260507162344 62 225 5.0 13.0 0.00 0.00 0.00 59 1015.4
20260507161844 61 230 2.0 6.0 0.00 0.00 0.00 59 1015.4
20260507161342 60 255 4.0 15.0 0.00 0.00 0.00 59 1015.5
20260507160841 60 268 1.0 15.0 0.00 0.00 0.00 58 1015.4
20260507160340 60 310 0.0 19.0 0.00 0.00 0.00 60 1015.5
20260507155839 61 251 3.0 12.0 0.00 0.00 0.00 59 1015.5
20260507155338 61 241 3.0 14.0 0.00 0.00 0.00 58 1015.4
20260507154837 61 233 5.0 10.0 0.00 0.00 0.00 56 1015.5
20260507154336 62 209 4.0 9.0 0.00 0.00 0.00 57 1015.5
20260507153835 61 265 0.0 12.0 0.00 0.00 0.00 59 1015.5
20260507153533 60 240 1.0 10.0 0.00 0.00 0.00 63 1015.6
20260507153334 60 240 1.0 10.0 0.00 0.00 0.00 63 1015.6
20260507152855 60 244 2.0 10.0 0.00 0.00 0.00 60 1015.7
20260507152833 60 262 4.0 9.0 0.00 0.00 0.00 61 1015.6
20260507152333 60 244 2.0 10.0 0.00 0.00 0.00 60 1015.7
20260507152316 60 265 3.0 14.0 0.00 0.00 0.00 61 1015.7
20260507151832 60 265 3.0 14.0 0.00 0.00 0.00 61 1015.7
20260507151331 60 223 7.0 16.0 0.00 0.00 0.00 60 1015.8
20260507150829 60 267 2.0 9.0 0.00 0.00 0.00 58 1016.0
20260507150328 60 247 3.0 7.0 0.00 0.00 0.00 63 1016.0
20260507145828 59 210 0.0 9.0 0.00 0.00 0.00 62 1016.0
20260507145327 59 248 0.0 6.0 0.00 0.00 0.00 61 1016.1
20260507144825 59 202 1.0 8.0 0.00 0.00 0.00 63 1016.0
20260507144325 59 126 0.0 7.0 0.00 0.00 0.00 64 1016.1
20260507143824 58 248 4.0 7.0 0.00 0.00 0.00 63 1016.1
20260507143322 58 212 2.0 7.0 0.00 0.00 0.00 63 1016.0
20260507142821 58 262 4.0 7.0 0.00 0.00 0.00 64 1016.1
20260507142320 57 225 1.0 8.0 0.00 0.00 0.00 64 1016.0
20260507141819 57 244 2.0 5.0 0.00 0.00 0.00 63 1016.1
20260507141318 57 241 0.0 11.0 0.00 0.00 0.00 63 1016.2
20260507140818 57 219 0.0 5.0 0.00 0.00 0.00 65 1016.3
20260507140316 57 178 4.0 4.0 0.00 0.00 0.00 66 1016.2
20260507135815 57 154 0.0 3.0 0.00 0.00 0.00 67 1016.2
20260507135315 56 233 1.0 5.0 0.00 0.00 0.00 67 1016.2
20260507134813 56 201 0.0 4.0 0.00 0.00 0.00 69 1016.2
20260507134313 56 215 0.0 3.0 0.00 0.00 0.00 69 1016.2
20260507133812 55 258 0.0 5.0 0.00 0.00 0.00 71 1016.2
20260507133310 55 139 0.0 6.0 0.00 0.00 0.00 70 1016.2
20260507132809 54 194 0.0 5.0 0.00 0.00 0.00 73 1016.3
20260507132308 53 199 3.0 5.0 0.00 0.00 0.00 72 1016.4
20260507131808 53 139 0.0 2.0 0.00 0.00 0.00 74 1016.5
20260507131306 53 139 0.0 0.0 0.00 0.00 0.00 74 1016.5
20260507130805 52 139 0.0 1.0 0.00 0.00 0.00 75 1016.5
20260507130305 52 199 0.0 7.0 0.00 0.00 0.00 75 1016.5
20260507125803 51 239 0.0 2.0 0.00 0.01 0.00 76 1016.4
20260507125306 50 234 0.0 0.0 0.00 0.01 0.00 77 1016.5
20260507124801 50 199 0.0 1.0 0.00 0.01 0.00 77 1016.5
20260507124300 49 201 0.0 2.0 0.00 0.01 0.00 77 1016.6
20260507123800 49 225 1.0 2.0 0.00 0.01 0.00 78 1016.5
20260507123258 49 9 0.0 2.0 0.00 0.01 0.00 78 1016.5
20260507122758 48 9 0.0 0.0 0.00 0.01 0.00 79 1016.5
20260507122256 48 9 0.0 0.0 0.00 0.01 0.00 79 1016.6
20260507121757 47 9 0.0 0.0 0.00 0.01 0.00 79 1016.5
20260507121254 47 9 0.0 0.0 0.00 0.01 0.00 80 1016.5
20260507120752 47 9 0.0 2.0 0.00 0.01 0.00 80 1016.4
20260507120251 47 9 0.0 0.0 0.00 0.01 0.00 80 1016.5
20260507115751 47 9 0.0 0.0 0.00 0.01 0.00 80 1016.4
20260507115249 47 9 0.0 0.0 0.00 0.01 0.00 80 1016.4
20260507114748 46 9 0.0 0.0 0.00 0.01 0.00 81 1016.3
20260507114247 46 9 0.0 0.0 0.00 0.01 0.00 81 1016.4
20260507113747 46 9 0.0 0.0 0.00 0.01 0.00 80 1016.4
20260507113246 46 9 0.0 0.0 0.00 0.01 0.00 80 1016.4
20260507112744 46 9 0.0 0.0 0.00 0.01 0.00 79 1016.4
20260507112243 46 9 0.0 0.0 0.00 0.01 0.00 79 1016.3
20260507111742 46 9 0.0 0.0 0.00 0.01 0.00 78 1016.3
20260507111241 46 9 0.0 0.0 0.00 0.01 0.00 78 1016.2
20260507110740 46 9 0.0 0.0 0.00 0.01 0.00 78 1016.2
20260507110239 46 9 0.0 0.0 0.00 0.01 0.00 78 1016.2
20260507105738 46 9 0.0 0.0 0.00 0.01 0.00 77 1016.2
20260507105237 46 9 0.0 0.0 0.00 0.01 0.00 77 1016.2
20260507104736 46 9 0.0 0.0 0.00 0.01 0.00 77 1016.2
20260507104235 46 9 0.0 0.0 0.00 0.01 0.00 77 1016.2
20260507103734 46 9 0.0 0.0 0.00 0.01 0.00 77 1016.2
20260507103233 46 9 0.0 0.0 0.00 0.01 0.00 76 1016.2
20260507102732 46 9 0.0 0.0 0.00 0.01 0.00 76 1016.2
20260507102231 46 9 0.0 0.0 0.00 0.01 0.00 76 1016.3
20260507101730 47 9 0.0 0.0 0.00 0.01 0.00 1016.3
20260507101229 46 9 0.0 0.0 0.00 0.01 0.00 66 1016.2
20260507100728 46 9 0.0 0.0 0.00 0.01 0.00 66 1016.2
20260507100227 47 9 0.0 0.0 0.00 0.01 0.00 66 1016.2
20260507095726 46 9 0.0 0.0 0.00 0.01 0.00 66 1016.3
20260507095225 46 9 0.0 0.0 0.00 0.01 0.00 66 1016.3
20260507094724 46 9 0.0 0.0 0.00 0.01 0.00 66 1016.3
20260507094223 46 9 0.0 0.0 0.00 0.01 0.00 66 1016.4
20260507093722 46 9 0.0 0.0 0.00 0.01 0.00 65 1016.4
20260507093221 46 9 0.0 0.0 0.00 0.01 0.00 66 1016.4
20260507092721 46 9 0.0 0.0 0.00 0.01 0.00 66 1016.5
20260507092219 46 9 0.0 0.0 0.00 0.01 0.00 66 1016.5
20260507091718 46 9 0.0 0.0 0.00 0.01 0.00 66 1016.5
20260507091217 47 9 0.0 0.0 0.00 0.01 0.00 65 1016.6
20260507090716 47 9 0.0 0.0 0.00 0.01 0.00 65 1016.5
20260507090215 47 9 0.0 0.0 0.00 0.01 0.00 65 1016.5
20260507085714 47 9 0.0 0.0 0.00 0.01 0.00 65 1016.4
20260507085213 47 9 0.0 0.0 0.00 0.01 0.00 64 1016.5
20260507084712 46 9 0.0 0.0 0.00 0.01 0.00 65 1016.5
20260507084211 46 9 0.0 0.0 0.00 0.01 0.00 65 1016.6
20260507083710 46 9 0.0 0.0 0.00 0.01 0.00 65 1016.6
20260507083209 46 9 0.0 0.0 0.00 0.01 0.00 65 1016.6
20260507082708 46 9 0.0 0.0 0.00 0.01 0.00 66 1016.6
20260507082207 46 9 0.0 0.0 0.00 0.01 0.00 66 1016.7
20260507081706 46 9 0.0 0.0 0.00 0.01 0.00 66 1016.7
20260507081205 46 9 0.0 0.0 0.00 0.01 0.00 66 1016.7
20260507080704 46 9 0.0 0.0 0.00 0.01 0.00 65 1016.6
20260507080203 46 9 0.0 0.0 0.00 0.01 0.00 65 1016.5
20260507075702 47 9 0.0 0.0 0.00 0.01 0.00 65 1016.5
20260507075201 47 9 0.0 0.0 0.00 0.01 0.00 65 1016.5
20260507074700 47 9 0.0 0.0 0.00 0.01 0.00 65 1016.5
20260507074159 47 9 0.0 0.0 0.00 0.01 0.00 65 1016.5
20260507073658 47 9 0.0 0.0 0.00 0.01 0.00 64 1016.6
20260507073157 47 9 0.0 0.0 0.00 0.01 0.00 64 1016.6
20260507072656 48 9 0.0 0.0 0.00 0.01 0.00 63 1016.6
20260507072155 48 9 0.0 0.0 0.00 0.01 0.00 63 1016.8
20260507071654 48 9 0.0 0.0 0.00 0.01 0.00 62 1016.8
20260507071153 48 9 0.0 0.0 0.00 0.01 0.00 61 1016.8
20260507070652 48 9 0.0 0.0 0.00 0.01 0.00 61 1016.9
20260507070151 49 9 0.0 0.0 0.00 0.01 0.00 60 1017.0
20260507065650 49 9 0.0 0.0 0.00 0.01 0.00 60 1017.0
20260507065149 49 9 0.0 0.0 0.00 0.01 0.00 60 1017.1
20260507064648 49 9 0.0 0.0 0.00 0.01 0.00 60 1017.1
20260507064147 49 9 0.0 0.0 0.00 0.01 0.00 59 1017.2
20260507063646 49 9 0.0 0.0 0.00 0.01 0.00 59 1017.2
20260507063145 49 9 0.0 0.0 0.00 0.01 0.00 58 1017.3
20260507062644 49 9 0.0 0.0 0.00 0.01 0.00 59 1017.2
20260507062143 49 9 0.0 0.0 0.00 0.01 0.00 60 1017.2
20260507061642 49 9 0.0 0.0 0.00 0.01 0.00 61 1017.2
20260507061141 49 9 0.0 0.0 0.00 0.01 0.00 61 1017.1
20260507060640 49 9 0.0 0.0 0.00 0.01 0.00 62 1017.2
20260507060139 49 9 0.0 0.0 0.00 0.01 0.00 63 1017.2
20260507055638 49 9 0.0 0.0 0.00 0.01 0.00 63 1017.2
20260507055137 48 9 0.0 0.0 0.00 0.01 0.00 62 1017.2
20260507054636 48 9 0.0 0.0 0.00 0.01 0.00 63 1017.2
20260507054135 48 9 0.0 0.0 0.00 0.01 0.00 63 1017.3
20260507053634 48 9 0.0 0.0 0.00 0.01 0.00 62 1017.4
20260507053133 48 9 0.0 0.0 0.00 0.01 0.00 62 1017.3
20260507052632 48 9 0.0 0.0 0.00 0.01 0.00 62 1017.3
20260507052131 48 9 0.0 0.0 0.00 0.01 0.00 63 1017.3
20260507051630 48 9 0.0 0.0 0.00 0.01 0.00 62 1017.3
20260507051129 48 9 0.0 0.0 0.00 0.01 0.00 62 1017.3
20260507050628 48 9 0.0 0.0 0.00 0.01 0.00 62 1017.3
20260507050127 48 9 0.0 0.0 0.00 0.01 0.00 63 1017.4
20260507045626 48 9 0.0 0.0 0.00 0.01 0.01 63 1017.3
20260507045125 48 9 0.0 0.0 0.00 0.01 0.01 69 1017.3
20260507044624 48 9 0.0 0.0 0.00 0.01 0.01 70 1017.3
20260507044123 48 9 0.0 0.0 0.00 0.01 0.01 71 1017.3
20260507043622 48 9 0.0 0.0 0.00 0.01 0.01 70 1017.3
20260507043121 48 9 0.0 0.0 0.00 0.01 0.01 71 1017.2
20260507042620 48 9 0.0 0.0 0.00 0.01 0.01 69 1017.2
20260507042119 48 9 0.0 0.0 0.00 0.01 0.01 71 1017.2
20260507041618 48 9 0.0 0.0 0.00 0.01 0.01 71 1017.3
20260507041117 48 9 0.0 0.0 0.00 0.01 0.01 71 1017.3
20260507040616 48 9 0.0 0.0 0.00 0.01 0.01 72 1017.5
20260507040115 48 9 0.0 0.0 0.00 0.01 0.01 71 1017.4
20260507035614 48 9 0.0 0.0 0.00 0.01 0.01 71 1017.5
20260507035113 48 9 0.0 0.0 0.00 0.01 0.01 61 1017.6
20260507034612 48 9 0.0 0.0 0.00 0.01 0.01 61 1017.6
20260507034111 48 9 0.0 0.0 0.00 0.01 0.01 60 1017.6
20260507033610 49 9 0.0 0.0 0.00 0.01 0.01 60 1017.5
20260507033109 49 9 0.0 0.0 0.00 0.01 0.01 60 1017.4
20260507032608 49 9 0.0 0.0 0.00 0.01 0.01 61 1017.4
20260507032107 49 9 0.0 0.0 0.00 0.01 0.01 62 1017.4
20260507031606 49 9 0.0 0.0 0.00 0.01 0.01 62 1017.4
20260507031105 49 9 0.0 0.0 0.00 0.01 0.01 62 1017.5
20260507030605 49 9 0.0 0.0 0.00 0.01 0.01 61 1017.5
20260507025602 49 9 0.0 0.0 0.00 0.03 0.01 59 1017.5
20260507025102 49 9 0.0 0.0 0.00 0.03 0.01 58 1017.4
20260507024600 49 9 0.0 0.0 0.00 0.03 0.01 59 1017.4
20260507024059 50 9 0.0 0.0 0.00 0.03 0.01 57 1017.3
20260507023558 50 9 0.0 0.0 0.00 0.03 0.01 55 1017.3
20260507023057 50 9 0.0 0.0 0.00 0.03 0.01 53 1017.3
20260507022556 50 9 0.0 0.0 0.00 0.03 0.01 54 1017.2
20260507022055 51 9 0.0 0.0 0.00 0.03 0.01 52 1017.2
20260507021554 51 9 0.0 0.0 0.00 0.03 0.01 51 1017.1
20260507021053 51 9 0.0 0.0 0.00 0.03 0.01 50 1017.1
20260507020552 51 9 0.0 0.0 0.00 0.03 0.01 49 1017.1
20260507020051 52 9 0.0 0.0 0.00 0.03 0.01 49 1017.0
20260507015550 52 9 0.0 0.0 0.00 0.03 0.01 49 1017.0
20260507015049 52 9 0.0 0.0 0.00 0.03 0.01 49 1016.9
20260507014548 53 9 0.0 0.0 0.00 0.03 0.01 47 1016.9
20260507014047 53 9 0.0 0.0 0.00 0.03 0.01 46 1017.0
20260507013547 53 9 0.0 0.0 0.00 0.03 0.01 47 1016.9
20260507013046 54 9 0.0 0.0 0.00 0.03 0.01 45 1016.9
20260507012544 54 9 0.0 0.0 0.00 0.03 0.01 45 1016.8
20260507012043 54 9 0.0 0.0 0.00 0.03 0.01 44 1016.8
20260507011542 55 9 0.0 0.0 0.00 0.03 0.01 43 1016.7
20260507011042 55 9 0.0 0.0 0.00 0.03 0.01 42 1016.7
20260507010540 55 9 0.0 0.0 0.00 0.03 0.01 41 1016.7
20260507010039 56 9 0.0 0.0 0.00 0.03 0.01 40 1016.6
20260507005539 56 9 0.0 0.0 0.00 0.03 0.01 39 1016.7
20260507005038 56 9 0.0 0.0 0.00 0.03 0.01 40 1016.6
20260507004537 56 9 0.0 0.0 0.00 0.03 0.01 39 1016.7
20260507004035 56 9 0.0 0.0 0.00 0.03 0.01 38 1016.6
20260507003534 57 9 0.0 0.0 0.00 0.03 0.01 37 1016.6
20260507003034 56 9 0.0 0.0 0.00 0.03 0.01 37 1016.6
20260507002533 57 9 0.0 3.0 0.00 0.03 0.01 37 1016.6
20260507002032 57 324 0.0 4.0 0.00 0.03 0.01 38 1016.6
20260507001530 57 313 0.0 3.0 0.00 0.03 0.01 36 1016.6
20260507001030 57 306 0.0 0.0 0.00 0.03 0.01 35 1016.6
20260507000529 57 306 0.0 5.0 0.00 0.03 0.01 35 1016.7
20260507000026 57 347 2.0 3.0 0.00 0.03 0.01 37 1016.7
20260506235525 57 4 1.0 6.0 0.00 0.03 0.01 38 1016.7
20260506235024 57 5 0.0 5.0 0.00 0.03 0.01 36 1016.6
20260506234523 57 23 0.0 0.0 0.00 0.03 0.01 35 1016.7
20260506234022 57 23 0.0 0.0 0.00 0.03 0.01 36 1016.7
20260506233521 57 23 0.0 3.0 0.00 0.03 0.01 37 1016.6
20260506233020 57 343 0.0 0.0 0.00 0.03 0.01 34 1016.7
20260506232520 57 343 0.0 7.0 0.00 0.03 0.01 35 1016.7
20260506232019 58 292 0.0 4.0 0.00 0.03 0.01 36 1016.7
20260506231518 58 322 0.0 1.0 0.00 0.03 0.01 34 1016.6
20260506231016 57 347 0.0 5.0 0.00 0.03 0.01 35 1016.7
20260506230515 58 18 0.0 0.0 0.00 0.03 0.01 36 1016.6
20260506230014 58 18 0.0 4.0 0.00 0.03 0.01 36 1016.7
20260506225514 57 49 3.0 10.0 0.00 0.03 0.01 34 1016.7
20260506225013 57 8 1.0 8.0 0.00 0.03 0.01 34 1016.7
20260506224511 57 327 3.0 15.0 0.00 0.03 0.01 36 1016.7
20260506224011 58 14 7.0 9.0 0.00 0.03 0.01 35 1016.6
20260506223509 58 354 4.0 11.0 0.00 0.03 0.01 35 1016.8
20260506223008 58 334 2.0 7.0 0.00 0.03 0.01 37 1016.8
20260506222508 58 274 0.0 6.0 0.00 0.03 0.01 36 1016.9
20260506222005 58 343 3.0 4.0 0.00 0.03 0.01 35 1016.9
20260506221504 58 319 0.0 5.0 0.00 0.03 0.01 35 1016.9
20260506221003 58 11 2.0 10.0 0.00 0.03 0.01 36 1016.9
20260506220502 58 299 0.0 8.0 0.00 0.03 0.01 37 1016.9
20260506220002 58 322 3.0 6.0 0.00 0.03 0.01 35 1017.0
20260506215501 58 355 0.0 10.0 0.00 0.03 0.01 38 1016.9
20260506215000 58 351 0.0 10.0 0.00 0.03 0.01 36 1016.9
20260506214458 58 319 7.0 10.0 0.00 0.03 0.01 35 1017.1
20260506213958 58 315 0.0 13.0 0.00 0.03 0.01 37 1017.1
20260506213457 58 64 4.0 13.0 0.00 0.03 0.01 37 1017.0
20260506212955 58 2 4.0 5.0 0.00 0.03 0.01 39 1017.1
20260506212454 58 350 0.0 3.0 0.00 0.03 0.01 38 1017.1
20260506211954 58 19 2.0 8.0 0.00 0.03 0.01 39 1017.1
20260506211452 58 25 4.0 11.0 0.00 0.03 0.01 37 1017.2
20260506210951 58 26 1.0 13.0 0.00 0.03 0.01 36 1017.5